Regional Weather Roundup
Issued by NWS

Home | Current Version | Previous Version | Graphics & Text | Print | Product List | Glossary On
Versions: 1 2 3 4 5 6 7 8 9 10 11 12 13 14 15 16 17 18 19 20 21 22 23 24 25 26 27 28 29 30 31 32 33 34 35 36 37 38 39 40 41 42 43 44 45 46 47 48 49 50
000
ASUS45 KBOU 302107
RWRCO

WEATHER ROUNDUP FOR COLORADO
NATIONAL WEATHER SERVICE DENVER/BOULDER CO
300 PM MDT SAT AUG 30 2014

NOTE: "FAIR" INDICATES FEW OR NO CLOUDS BELOW 12000 FEET WITH NO
SIGNIFICANT WEATHER AND/OR OBSTRUCTIONS TO VISIBILITY.

COZ001>005-013-030-031-302200-
...NORTHWEST COLORADO...

CITY           SKY/WX    TMP DP  RH WIND       PRES   REMARKS
CRAIG          TSTM      69  47  45 SW10G32   30.06R
HAYDEN         CLOUDY    72  37  28 SW14G37   30.06F
MEEKER         CLOUDY    78  41  26 S14G23    30.08F
MOUNT WERNER   NOT AVBL
STEAMBOAT SPGS CLOUDY    76  41  29 W10G21    30.08F
WALDEN         PTSUNNY   63  30  29 SW16G40   30.19R
$$

COZ006>008-011-302200-
...WEST CENTRAL VALLEYS...

CITY           SKY/WX    TMP DP  RH WIND       PRES   REMARKS
GRAND JUNCTION CLOUDY    81  47  30 NW7       29.99F
MONTROSE       PTSUNNY   84  43  23 N3        30.08F
EAGLE          MOSUNNY   77  43  29 SW26G33   30.11F
RIFLE          CLOUDY    79  44  28 W13G20    30.04F
DELTA          PTSUNNY   87  39  18 S3        30.03F
NUCLA          PTSUNNY   86  32  14 SW17G25   30.12F
$$

COZ017>023-064>068-302200-
...SOUTHWEST COLORADO...

CITY           SKY/WX    TMP DP  RH WIND       PRES   REMARKS
DURANGO        MOSUNNY   81  31  16 SW10      30.16F
CORTEZ         SUNNY     88  36  15 S13       30.13F
PAGOSA SPRINGS MOSUNNY   77  24  14 SW12G18   30.24F
TELLURIDE      NOT AVBL
WOLF CREEK PAS CLOUDY    50  32  50 SW22G28   30.54F
$$

COZ009-010-012-014-032>034-037-058>063-302200-
...CENTRAL COLORADO...

CITY           SKY/WX    TMP DP  RH WIND       PRES   REMARKS
ASPEN          PTSUNNY   70  33  25 NW14G25   30.21S
BUENA VISTA    DRIZZLE   65  35  31 E5G24     30.22F
COPPER MTN     LGT RAIN  54  34  47 W7G18     30.51F
BERTHOUD PASS  FAIR      50  48  93 MISG      30.52F
COTTONWOOD PAS PTSUNNY   61  43  51 CALM      30.36F
GUNNISON       MOSUNNY   72  34  25 W14G21    30.23F
KREMMLING      PTSUNNY   79  30  17 W16G24    30.13F
LEADVILLE      PTSUNNY   57  33  40 SW13G24   30.34F
MONARCH PASS   MOSUNNY   57  32  38 W28G35    30.61F
SALIDA         PTSUNNY   76  31  18 W15G32    30.25S
SUNLIGHT       CLOUDY    64  46  52 CALM      30.44F
WILKERSON PASS NOT AVBL
$$

COZ069>075-302200-
...SAN LUIS VALLEY/SANGRE DE CRISTO MOUNTAINS...

CITY           SKY/WX    TMP DP  RH WIND       PRES   REMARKS
ALAMOSA        MOSUNNY   77  32  19 S7        30.19F
LA VETA PASS   NOT AVBL
SAGUACHE       NOT AVBL
$$

COZ035-036-038>040-302200-
...NORTHERN COLORADO FRONT RANGE...

CITY           SKY/WX    TMP DP  RH WIND       PRES   REMARKS
DENVER INTL AP MOSUNNY   85  36  17 CALM      29.96F
DMNS CITY PARK   N/A     85  34  15 NE1G7     29.94F
AURORA         MOSUNNY   85  38  18 S6        29.98F
FRONT RANGE AP MOSUNNY   86  34  15 W7        29.98
ERIE MUNI ARPT MOSUNNY   88  33  13 S3        29.92F
BOULDER MUN AP MOSUNNY   88  37  16 CALM      29.93F
CENTENNIAL     MOSUNNY   83  33  16 SW5       29.99F
BROOMFIELD     MOSUNNY   86  37  17 VRB6      29.97F
FORT COLLINS   MOSUNNY   88  48  25 SE10      29.91F
LONGMONT       MOSUNNY   94  39  15 W10G17    29.92F
$$

COZ041-046-047-076>085-087-088-302200-
...PIKES PEAK/PALMER DIVIDE AND SOUTHERN FOOTHILLS...

CITY           SKY/WX    TMP DP  RH WIND       PRES   REMARKS
COLO. SPRINGS  MOSUNNY   83  37  19 VRB6G17   30.05F
A. F. ACADEMY  SUNNY     80  41  25 VRB7      30.05F
ELLICOTT       SUNNY     82  38  20 SW9G16    30.04F
FALCON         NOT AVBL
FORT CARSON    SUNNY     84  39  20 VRB1      30.01F
LIMON          SUNNY     83  43  24 S10G20    30.00F
MONUMENT HILL  SUNNY     77  30  18 NW6       30.09F
TRINIDAD       MOSUNNY   87  39  18 SE12      30.02F
$$

COZ042>045-048>051-090-091-302200-
...NORTHEAST COLORADO...

CITY           SKY/WX    TMP DP  RH WIND       PRES   REMARKS
GREELEY ARPT   SUNNY     90  39  17 S8        29.91F
AKRON          SUNNY     86  43  22 S12G25    29.93F
BURLINGTON     SUNNY     88  45  22 S18G24    29.95F
WRAY             N/A     91  47  21 S16G22    29.89F
STERLING       SUNNY     88  61  40 S7        29.88F
HOLYOKE        SUNNY     88  52  29 S9G18     29.88F
FORT MORGAN    SUNNY     86  49  27 SE6       29.92F
$$

COZ086-089-092>099-302200-
...SOUTHEAST COLORADO...

CITY           SKY/WX    TMP DP  RH WIND       PRES   REMARKS
PUEBLO         SUNNY     89  38  16 SW7       29.94F
LA JUNTA       SUNNY     90  44  20 CALM      29.92F
LAMAR          SUNNY     92  43  18 W9        29.88F
SPRINGFIELD      N/A     90  46  21 SW18G28   29.94F
$$



USA.gov is the U.S. government's official web portal to all federal, state and local government web resources and services.